This is the latest recevied weather packets stored in our database for station/object WC4PEM-7. If no packets are shown the sender has not sent any weather packets the latest 10 day(s).
| Time | Temp. | Humidity | Pressure | Rain* | Wind** | Luminosity | Snow |
|---|---|---|---|---|---|---|---|
| 1777235308 | 29.44° C | 56% | 1010.3 hPa | 0 mm | - | - | - |
| 1777235199 | 29.44° C | 56% | 1010.3 hPa | 0 mm | - | - | - |
| 1777235053 | 29.44° C | 56% | 1010.3 hPa | 0 mm | - | - | - |
| 1777234992 | 29.44° C | 60% | 1010.4 hPa | 0 mm | - | - | - |
| 1777234753 | 28.89° C | 60% | 1010.3 hPa | 0 mm | - | - | - |
| 1777234453 | 28.89° C | 61% | 1010.2 hPa | 0 mm | - | - | - |
| 1777234306 | 28.89° C | 59% | 1010.4 hPa | 0 mm | - | - | - |
| 1777234153 | 28.89° C | 59% | 1010.4 hPa | 0 mm | - | - | - |
| 1777233853 | 29.44° C | 59% | 1010.3 hPa | 0 mm | - | - | - |
| 1777233553 | 29.44° C | 60% | 1010.4 hPa | 0 mm | - | - | - |
| 1777233253 | 29.44° C | 58% | 1010.6 hPa | 0 mm | - | - | - |
| 1777232953 | 29.44° C | 60% | 1010.5 hPa | 0 mm | - | - | - |
| 1777232653 | 29.44° C | 61% | 1010.5 hPa | 0 mm | - | - | - |
| 1777232353 | 28.89° C | 62% | 1010.4 hPa | 0 mm | - | - | - |
| 1777232100 | 29.44° C | 61% | 1010.6 hPa | 0 mm | - | - | - |
| 1777232053 | 29.44° C | 61% | 1010.5 hPa | 0 mm | - | - | - |
| 1777231753 | 29.44° C | 61% | 1010.6 hPa | 0 mm | - | - | - |
| 1777231542 | 29.44° C | 61% | 1010.6 hPa | 0 mm | - | - | - |
| 1777231453 | 29.44° C | 61% | 1010.6 hPa | 0 mm | - | - | - |
| 1777231319 | 29.44° C | 62% | 1010.8 hPa | 0 mm | - | - | - |
| 1777231252 | 29.44° C | 62% | 1010.7 hPa | 0 mm | - | - | - |
| 1777231153 | 29.44° C | 62% | 1010.7 hPa | 0 mm | - | - | - |
| 1777230853 | 29.44° C | 62% | 1010.8 hPa | 0 mm | - | - | - |
| 1777230763 | 29.44° C | 59% | 1010.9 hPa | 0 mm | - | - | - |
| 1777230553 | 28.89° C | 63% | 1010.9 hPa | 0 mm | - | - | - |
* Rain latest hour (hover to see other rain measurements)
** Current wind speed in m/s (hover to see current wind gust speed)